Weather History for KRDM - April, 2013

Change the Weather History Date:

Thursday, April 4, 2013

  Actual Average Record
Temperature  
Mean Temperature 55 °F 43 °F  
Max Temperature 68 °F 57 °F 83 °F (1960)
Min Temperature 42 °F 28 °F 11 °F (2009)
Degree Days  
Heating Degree Days 10 22  
Month to date heating degree days 58 91  
Since 1 July heating degree days 5283 5542  
Cooling Degree Days 0 0  
Month to date cooling degree days 0 0  
Year to date cooling degree days 0 0  
Growing Degree Days 6 (Base 50)    
Moisture  
Dew Point 37 °F    
Average Humidity 58    
Maximum Humidity 86    
Minimum Humidity 30    
Precipitation  
Precipitation 0.01 in 0.02 in 0.16 in (1993)
Month to date precipitation 0.01 0.08  
Year to date precipitation 0.76 2.36  
Sea Level Pressure  
Sea Level Pressure 29.81 in    
Wind  
Wind Speed 8 mph (SSW)    
Max Wind Speed 30 mph    
Max Gust Speed 39 mph    
Visibility 10 miles    
Events Rain    
T = Trace of Precipitation, MM = Missing Value Source: NWS Daily Summary

Daily Weather History Graph

Daily Weather History Graph

Search for Another Location

Airport or City:

Trip Planner

Search our weather history database for the weather conditions in past years. The results will help you decide how hot, cold, wet, or windy it might be!

Date:

Astronomy

Apr. 04, 2013 Rise Set
Actual Time 6:39 AM PDT 7:35 PM PDT
Civil Twilight 6:10 AM PDT 8:05 PM PDT
Nautical Twilight 5:35 AM PDT 8:40 PM PDT
Astronomical Twilight 4:58 AM PDT 9:17 PM PDT
Moon 3:22 AM PDT (4/4) 1:48 PM PDT (4/4)
Length of Visible Light 13h 55m
Length of Day
12h 56m
Waning Crescent, 32% of the Moon is Illuminated
Apr 4
Waning Crescent
Apr 10
New
Apr 18
First Quarter
Apr 25
Full
May 2
Last Quarter

Hourly Weather History & Observations

Time (PDT) Temp. Windchill Dew Point Humidity Pressure Visibility Wind Dir Wind Speed Gust Speed Precip Events Conditions
12:56 AM 53.1 °F - 35.1 °F 50% 29.91 in 10.0 mi NNW 4.6 mph - N/A   Overcast
1:56 AM 50.0 °F - 35.1 °F 57% 29.89 in 10.0 mi SW 3.5 mph - N/A   Clear
2:56 AM 46.9 °F - 35.1 °F 63% 29.87 in 10.0 mi South 3.5 mph - N/A   Partly Cloudy
3:56 AM 46.9 °F - 35.1 °F 63% 29.84 in 10.0 mi Calm Calm - N/A   Overcast
4:56 AM 46.9 °F - 35.1 °F 63% 29.81 in 10.0 mi NW 3.5 mph - N/A   Mostly Cloudy
5:56 AM 46.9 °F - 35.1 °F 63% 29.81 in 10.0 mi Calm Calm - N/A   Mostly Cloudy
6:56 AM 46.0 °F 44.8 °F 36.0 °F 68% 29.80 in 10.0 mi ESE 3.5 mph - N/A   Overcast
7:56 AM 48.0 °F - 36.0 °F 63% 29.78 in 10.0 mi ESE 3.5 mph - N/A   Overcast
8:56 AM 50.0 °F - 37.0 °F 61% 29.77 in 10.0 mi Calm Calm - N/A   Overcast
9:56 AM 57.0 °F - 34.0 °F 42% 29.76 in 10.0 mi South 9.2 mph - N/A   Overcast
10:56 AM 57.9 °F - 36.0 °F 44% 29.78 in 10.0 mi South 10.4 mph 20.7 mph N/A   Overcast
11:56 AM 60.1 °F - 37.9 °F 44% 29.76 in 10.0 mi South 11.5 mph 20.7 mph N/A   Overcast
12:56 PM 60.1 °F - 37.0 °F 42% 29.73 in 10.0 mi SSW 10.4 mph 21.9 mph N/A   Overcast
1:56 PM 64.0 °F - 37.0 °F 37% 29.73 in 10.0 mi SSW 13.8 mph 24.2 mph N/A   Mostly Cloudy
2:56 PM 68.0 °F - 35.1 °F 30% 29.68 in 10.0 mi SSW 20.7 mph 29.9 mph N/A   Partly Cloudy
3:56 PM 57.9 °F - 39.0 °F 49% 29.78 in 10.0 mi West 20.7 mph 34.5 mph 0.00 in   Mostly Cloudy
4:10 PM 57.2 °F - 39.2 °F 51% 29.80 in 10.0 mi West 18.4 mph 27.6 mph N/A   Mostly Cloudy
4:56 PM 55.9 °F - 39.0 °F 53% 29.78 in 10.0 mi WNW 4.6 mph - N/A   Mostly Cloudy
5:56 PM 57.0 °F - 37.9 °F 49% 29.79 in 10.0 mi West 3.5 mph - N/A   Overcast
6:56 PM 54.0 °F - 37.9 °F 55% 29.82 in 10.0 mi NW 11.5 mph 20.7 mph N/A   Overcast
7:56 PM 46.9 °F - 42.1 °F 83% 29.83 in 10.0 mi Calm Calm - 0.00 in   Partly Cloudy
8:56 PM 48.9 °F - 36.0 °F 61% 29.84 in 10.0 mi South 9.2 mph - N/A   Partly Cloudy
9:56 PM 50.0 °F - 37.0 °F 61% 29.85 in 10.0 mi South 13.8 mph - N/A   Mostly Cloudy
10:56 PM 44.1 °F 41.5 °F 39.9 °F 85% 29.87 in 8.0 mi NNE 4.6 mph - 0.01 in Rain Light Rain
11:56 PM 43.0 °F 38.2 °F 39.9 °F 89% 29.88 in 10.0 mi SE 8.1 mph - 0.00 in   Overcast